Location: Peebles
(55.6412°N, 3.1714°W)
Time: 12:48:59
(UTC+00:00)

RS-15 - Pass Details

Date: 06 December 2023
Orbit: 1893 x 2151 km, 64.8° (Epoch: 02 March)

Event Time Altitude Azimuth Distance (km) Brightness Sun altitude
Rises 22:55:44 0° 249° (WSW) 5,636 10.5 -54.6°
Reaches altitude 10° 22:59:17 10° 253° (WSW) 4,614 10.0 -54.8°
Enters shadow 23:00:11 13° 254° (WSW) 4,356 9.8 -54.9°
Exits shadow 23:22:04 12° 57° (ENE) 4,233 9.8 -56.0°
Drops below altitude 10° 23:22:43 10° 57° (ENE) 4,419 9.9 -56.0°
Sets 23:26:03 0° 61° (ENE) 5,389 10.4 -56.2°
